Regional Weather Roundup
Issued by NWS

Home | Current Version | Previous Version | Text Only | Print | Product List | Glossary On
Versions: 1 2 3 4 5 6 7 8 9 10 11 12 13 14 15 16 17 18 19 20 21 22 23 24 25 26 27 28 29 30 31 32 33 34 35 36 37 38 39 40 41 42 43 44 45 46 47 48 49 50
000
ASUS44 KMEG 011610
RWRTN
TENNESSEE HOURLY STATE WEATHER ROUNDUP
NATIONAL WEATHER SERVICE MEMPHIS TN
1100 AM CDT WED OCT 01 2014

TNZ002-004-019-021-049-052-054-088>092-011700-
WEST TENNESSEE

CITY           SKY/WX    TMP DP  RH WIND       PRES   REMARKS
MEMPHIS INTL   MOSUNNY   85  65  51 S9G18     29.95R
NWS MEMPHIS      N/A     83 N/A N/A MISG        N/A
JACKSON        SUNNY     82  62  50 S10       29.97R
DYERSBURG      MOSUNNY   82  59  44 S7        29.96S
UNION CITY     MOSUNNY   81  64  57 S6        29.95S
PARIS          SUNNY     82  61  47 S5        29.98S
HUNTINGDON     SUNNY     80  62  54 S6        29.97S
LEXINGTON      SUNNY     81  63  54 SW5       29.97S
SAVANNAH       SUNNY     82  63  51 S8        29.98S
$$

TNZ008-025-027-028-033-062-065-066-011700-
NORTH MIDDLE TENNESSEE

CITY           SKY/WX    TMP DP  RH WIND       PRES   REMARKS
NASHVILLE      MOSUNNY   80  59  48 S3        30.00S
PORTLAND       MOSUNNY   79  57  47 SE5       29.99S
CLARKSVILLE    PTSUNNY   80  58  46 VRB3      29.98S
LEBANON        SUNNY     78  59  52 VRB3      29.99S
SMYRNA         SUNNY     79  60  51 VRB6      30.01S
MURFREESBORO   SUNNY     80  59  48 CALM      30.00S
COOKEVILLE     SUNNY     79  61  53 SW3       30.03S
LIVINGSTON     MOSUNNY   76  56  49 VRB5      30.04
GALLATIN       PTSUNNY   77  60  55 CALM      30.01F
CROSSVILLE     MOSUNNY   76  54  46 SW5       30.07S
$$

TNZ061-075-076-078-094-096-097-011700-
SOUTH MIDDLE TENNESSEE

CITY           SKY/WX    TMP DP  RH WIND       PRES   REMARKS
LEWISBURG      MOSUNNY   80  64  58 VRB6      30.00S
FAYETTEVILLE   SUNNY     79  61  53 VRB3      30.02S
TULLAHOMA      SUNNY     79  61  53 SW6       30.03S
WINCHESTER     SUNNY     81  63  54 VRB3      30.02S
MCMINNVILLE    SUNNY     79  64  61 CALM      30.03S
COLUMBIA       SUNNY     82  64  54 SW8       29.99S
SHELBYVILLE    MOSUNNY   81  64  57 S7        30.02S
$$

TNZ017-018-042-046-047-011700-
NORTHEAST TENNESSEE

CITY           SKY/WX    TMP DP  RH WIND       PRES   REMARKS
TRI CITIES     MOSUNNY   73  56  54 CALM      30.06F
ELIZABETHTON   SUNNY     73  55  53 SW5       30.05F
$$

TNZ012-013-036-069-073-074-011700-
CENTRAL EAST TENNESSEE

CITY           SKY/WX    TMP DP  RH WIND       PRES   REMARKS
KNOXVILLE      NOT AVBL
OAK RIDGE      MOSUNNY   72  59  63 SW3       30.06F
GATLINBURG     SUNNY     75  54  46 CALM      30.03F
MORRISTOWN     SUNNY     73  59  60 CALM      30.05F
$$

TNZ083-085-099-011700-
SOUTHEAST TENNESSEE

CITY           SKY/WX    TMP DP  RH WIND       PRES   REMARKS
CHATTANOOGA    PTSUNNY   77  61  57 CALM      30.03F
$$

SKY/WX REPORTED AS FAIR MEANS FEW OR NO CLOUDS BELOW
12 THOUSAND FEET.



USA.gov is the U.S. government's official web portal to all federal, state and local government web resources and services.